Location: Altenhof
(50.2418°N, 10.8789°E)
Time: 19:15:25
(UTC+00:00)

Cosmos 2219 Rocket - Pass Details

Date: 18 February 2020
Orbit: 828 x 846 km, 71.0° (Epoch: 30 March)

Event Time Altitude Azimuth Distance (km) Brightness Sun altitude
Exits shadow 03:59:03 21° 329° (NNW) 1,839 3.7 -23.6°
Drops below altitude 10° 04:02:51 10° 11° (N) 2,479 4.9 -23.0°
Sets 04:05:58 0° 28° (NNE) 3,416 5.9 -22.5°
